Torna al catalogo

COSMOS 886 DEB

AttivoLEO
NORAD 9826·DEBRIS·🇷🇺 Russia

Lanciato Dec 27, 1976 da Baikonur Cosmodrome

Loading…

Prossimi Passaggi (prossime 24 ore)

TLE

AggiornatoSource: Space-Track

Epoca: Sep 14, 2026, 10:25 UTC

1 09826U 76126AN  26257.43424893  .00001672  00000-0  48687-3 0  9998
2 09826  65.8392  58.8751 0741643 250.3709 101.5886 13.48634106374419

Traccia COSMOS 886 DEB in tempo reale con AllMySat

Download on the App Store